Theta_e
342 345 349 343 341 345 342 343 339 339 341 341 342 342 340 338 339 339 341 342 344 345 344 344 344 344 344 344 343 343 341 341 341 341 340 337 335 338 339 337 337 340 343 344 344 343 341 339 337 334 333 332 333 335 335 335 334 331 328 325 327 331 335 335 332 332 334 334 334 334 335 335 336 337 337 336 335 335 336 336 335 334 335 336 336
341 345 349 343 342 345 343 343 339 339 340 340 340 339 337 336 337 337 339 338 339 338 338 339 339 340 341 342 341 341 341 341 339 337 338 336 336 339 341 340 338 338 340 342 342 342 339 336 334 329 331 334 331 331 331 330 328 326 322 320 322 325 329 329 331 334 333 333 333 334 334 335 336 336 337 337 335 333 334 335 335 335 336 336 336
342 346 349 344 342 345 344 342 340 340 339 340 339 336 334 333 333 333 333 331 332 331 331 332 332 334 336 340 340 340 340 338 333 332 335 336 337 339 340 340 339 338 337 340 340 339 339 336 332 327 330 333 326 323 323 323 323 320 319 319 321 323 326 329 332 333 333 336 337 336 336 336 335 336 337 337 336 334 334 334 334 335 336 336 336
344 347 348 344 342 345 344 341 341 341 340 340 338 334 332 331 329 327 328 328 331 331 332 332 332 333 333 337 338 339 339 335 332 334 337 338 338 337 338 339 340 340 339 340 339 337 339 337 331 327 328 327 318 316 317 318 318 317 318 318 321 324 327 330 332 333 335 338 339 339 340 339 337 336 337 337 337 336 335 335 335 335 336 336 336
346 346 348 345 344 347 343 342 342 342 341 340 338 333 331 330 327 327 328 331 334 334 334 333 331 330 331 335 335 335 337 336 336 337 339 339 338 337 338 338 340 341 340 340 338 337 339 337 331 326 324 320 316 316 317 317 318 317 318 319 322 326 327 328 329 332 336 338 339 341 341 340 339 336 337 337 337 337 337 336 336 336 336 336 336
346 346 348 346 347 347 343 343 342 341 341 341 337 332 332 330 328 328 331 334 334 335 332 329 328 326 331 335 334 333 334 335 337 337 339 339 337 337 338 339 340 340 340 338 338 338 339 337 331 325 326 325 323 322 321 321 321 320 319 320 323 325 327 328 328 332 337 339 340 341 340 340 340 338 337 337 337 337 337 336 336 336 336 336 336
346 346 349 347 347 347 343 343 341 341 341 340 335 332 333 330 329 330 334 336 335 333 327 328 330 327 332 336 335 334 332 334 337 337 339 339 338 339 339 340 341 339 338 337 337 337 338 338 333 330 332 330 329 328 328 327 326 325 322 321 323 326 327 328 329 334 338 340 341 340 340 340 340 338 336 337 337 337 337 336 336 336 335 336 336
345 347 349 347 348 347 344 342 342 341 341 340 337 334 333 332 331 334 337 338 336 330 325 331 335 332 334 336 336 335 332 334 336 337 338 339 339 340 340 340 340 338 337 336 337 337 338 338 335 334 334 332 332 332 331 331 331 330 327 324 323 326 328 328 330 335 340 340 340 340 339 339 340 338 336 337 337 337 337 336 335 335 335 335 336
346 348 348 347 348 346 343 342 342 342 342 341 338 335 336 337 335 338 339 338 336 329 327 333 335 335 335 334 335 336 334 335 336 336 337 338 339 340 340 339 338 337 337 336 337 336 338 338 335 334 333 333 333 333 333 332 332 332 331 329 325 326 328 328 332 338 340 340 340 340 339 339 339 338 336 337 337 336 336 335 335 335 334 334 335
347 348 347 347 348 345 342 343 342 342 342 341 339 336 339 341 338 340 339 336 334 329 332 334 334 335 336 334 334 335 336 336 337 335 335 338 340 340 338 337 336 336 337 337 337 336 338 338 334 332 333 333 333 333 332 331 331 331 332 331 328 327 328 329 334 339 340 340 340 339 338 339 339 338 336 337 337 335 335 334 334 334 334 334 334
347 348 347 347 348 344 342 343 342 341 341 342 341 339 341 341 339 341 338 335 333 331 333 334 334 333 333 334 333 335 337 336 337 336 334 336 338 338 336 335 336 336 337 337 337 337 337 335 332 332 332 332 332 332 332 331 331 332 332 332 330 327 328 331 335 338 338 340 340 340 339 339 340 337 336 336 336 335 334 334 334 333 334 334 334
347 348 348 348 347 344 342 343 342 341 341 341 342 341 341 340 340 339 336 335 334 334 334 334 335 333 330 330 333 335 337 336 336 336 334 335 338 337 334 334 336 336 337 337 337 337 335 331 330 331 331 331 331 331 331 331 331 332 331 331 329 327 330 333 335 337 339 340 339 340 339 340 339 336 336 336 335 335 334 334 334 333 333 333 333
346 347 348 348 347 343 342 343 343 341 341 341 341 341 341 341 340 338 337 338 336 336 336 334 334 334 333 330 334 336 336 337 337 336 333 336 339 336 333 334 336 336 337 336 336 335 331 329 330 330 330 331 331 331 331 331 331 332 332 330 329 328 331 334 335 337 339 340 339 339 339 340 338 335 337 336 335 334 334 334 333 333 332 332 332
345 346 348 348 347 344 342 343 343 342 341 341 341 342 341 340 339 338 341 339 337 339 338 336 333 333 334 333 334 336 336 337 337 335 335 338 339 336 333 334 336 335 335 335 334 331 328 329 329 329 330 330 330 331 331 331 331 332 332 330 329 329 333 336 336 337 339 340 339 339 339 339 337 335 336 335 334 334 334 334 333 333 333 332 331
345 346 347 347 346 344 343 343 343 342 342 341 341 342 341 340 339 339 342 339 337 340 340 338 334 331 332 334 335 336 336 337 337 335 337 339 338 336 333 334 335 333 333 334 332 329 328 329 329 329 330 330 331 331 331 331 332 333 331 329 329 331 335 337 337 338 339 340 339 338 338 337 335 335 335 334 334 334 333 333 332 332 331 331 330
346 346 346 346 346 344 343 343 343 342 342 341 341 342 341 342 339 339 342 339 338 340 340 337 335 331 328 332 335 335 336 337 336 336 338 339 337 336 333 333 333 332 334 332 330 328 328 329 328 329 330 331 331 331 331 331 332 332 330 329 330 332 335 337 337 338 340 340 338 337 337 336 335 335 334 334 334 334 333 331 331 330 329 329 327
346 345 345 345 346 345 344 343 343 342 342 341 341 341 341 343 339 339 341 339 338 340 340 337 335 334 328 327 332 334 335 336 336 336 338 339 337 336 336 334 331 332 333 330 328 328 328 329 329 329 330 332 331 331 332 332 332 331 330 330 331 332 334 337 337 337 339 339 338 337 337 336 335 334 334 334 334 334 332 330 330 329 328 325 321
343 343 343 344 345 344 344 344 343 342 342 341 341 341 341 343 340 339 341 339 339 340 339 337 336 336 330 324 329 332 333 336 336 337 338 337 338 337 335 333 331 331 331 328 328 328 328 329 329 330 332 332 332 332 332 331 331 330 330 331 332 332 334 337 337 338 339 338 337 337 336 335 334 334 335 335 334 333 331 330 328 326 322 317 312
341 341 342 342 344 343 343 343 343 344 343 342 341 341 340 341 341 339 340 339 339 340 339 338 337 338 333 324 327 332 333 336 336 336 337 337 337 336 333 332 332 330 329 328 328 328 328 329 329 332 334 333 332 332 331 331 331 332 332 333 333 333 335 337 338 338 339 337 337 337 335 334 334 334 335 334 333 331 330 328 324 319 313 310 308
341 341 343 343 343 343 343 342 343 344 344 343 342 343 340 340 341 340 339 339 340 340 338 338 338 338 334 326 327 333 333 335 336 335 337 336 337 336 332 332 333 329 329 329 328 328 328 328 329 332 335 335 334 333 333 333 333 334 334 334 333 335 336 337 339 338 338 337 337 336 335 335 335 334 334 333 332 329 327 323 318 313 309 308 309
342 342 343 344 344 343 343 342 343 344 344 343 342 344 342 340 341 340 339 340 340 339 338 339 339 338 334 328 328 333 333 334 335 334 336 336 337 337 333 332 333 330 329 329 328 329 328 328 328 328 332 334 335 335 335 335 335 335 334 334 335 337 337 339 339 337 337 337 336 336 335 335 335 334 333 331 329 327 324 318 313 310 309 309 309
342 342 342 343 344 343 343 342 343 344 344 343 343 343 343 341 342 342 341 341 341 340 339 339 340 338 334 331 331 333 332 333 333 333 336 336 336 336 334 332 333 332 329 329 329 329 328 328 328 328 328 328 331 335 336 336 336 335 335 335 336 337 338 340 339 337 337 336 336 335 334 334 334 333 331 329 328 324 319 314 309 307 310 311 309
342 341 342 343 343 343 343 343 344 344 343 343 343 343 343 342 343 343 342 342 342 341 341 341 341 337 334 334 333 333 332 333 333 333 335 336 336 336 335 333 333 333 330 329 329 329 329 329 329 328 326 327 332 336 337 337 336 335 335 336 337 338 339 340 338 337 336 336 336 334 334 334 333 331 330 329 326 321 314 309 304 308 314 315 313
342 342 342 343 343 343 343 342 344 344 344 343 343 343 344 342 342 343 343 344 343 342 342 341 340 337 335 334 333 332 332 333 333 334 334 336 337 335 335 333 333 333 331 331 330 329 329 329 329 328 328 331 334 336 335 336 336 336 337 337 337 338 338 338 337 337 335 335 334 333 333 333 332 330 328 327 323 316 309 306 309 315 317 315 314
343 342 343 343 343 343 343 343 343 344 343 343 343 343 343 342 342 343 343 344 343 343 342 341 341 337 334 334 333 333 333 332 332 333 333 335 336 336 336 334 334 334 332 334 334 331 331 331 329 330 332 333 334 335 335 335 336 337 337 337 337 337 337 336 336 335 333 333 333 332 332 332 330 329 327 323 317 310 307 309 313 315 312 309 311
343 343 344 343 342 343 343 343 343 343 343 343 342 343 343 342 342 343 343 344 343 343 342 341 340 337 334 334 334 333 333 333 332 333 332 332 334 336 336 334 334 334 333 334 334 333 334 333 331 332 333 333 334 335 335 335 336 337 337 336 336 336 336 335 335 334 332 331 331 331 331 330 329 327 323 319 314 312 312 314 315 312 309 310 312
344 344 345 344 343 342 343 343 343 343 343 342 342 342 343 343 342 342 343 344 343 343 342 341 339 336 334 334 334 334 334 334 333 332 332 332 332 334 335 334 334 334 334 334 334 334 334 333 332 332 332 332 334 334 335 336 336 336 336 335 335 335 335 334 333 332 331 329 329 329 328 327 324 322 320 319 318 318 318 318 317 315 314 315 316
344 345 345 344 343 343 343 343 342 343 342 342 342 341 342 343 342 342 343 343 343 343 342 341 338 334 334 334 334 334 334 335 334 333 333 333 333 333 333 334 334 334 334 334 334 334 333 332 332 332 331 332 333 334 336 336 336 335 334 333 334 333 332 331 331 329 328 328 328 327 326 322 318 319 321 321 321 320 320 320 319 318 318 317 317
345 345 345 344 343 343 342 342 342 342 342 341 341 342 341 342 343 342 342 342 342 342 342 340 336 334 334 334 334 334 334 335 335 334 334 334 333 333 333 333 334 334 334 334 334 333 333 333 333 332 331 332 333 334 335 336 336 334 333 333 332 331 330 329 328 327 327 327 326 324 323 320 318 321 322 321 321 321 320 320 319 318 318 317 316
345 346 345 344 344 342 342 342 342 342 342 342 341 341 341 342 343 342 342 342 342 342 341 339 336 334 333 333 333 334 335 335 336 336 335 335 334 334 333 334 334 334 335 334 333 332 332 333 334 332 331 332 332 334 335 335 335 334 333 332 331 330 329 328 327 327 326 326 325 322 318 318 321 322 321 321 321 321 320 320 319 318 317 317 317
347 346 344 344 343 342 342 342 342 341 341 341 341 341 341 342 342 341 342 342 341 341 341 338 336 334 333 333 332 332 333 335 336 336 335 336 335 335 335 334 334 334 334 333 332 333 333 333 333 332 331 331 332 334 335 334 334 333 332 330 330 329 329 328 327 326 326 325 325 322 318 318 321 322 321 321 321 320 320 319 318 317 317 317 317
347 347 345 344 343 343 342 342 342 341 341 341 341 340 341 341 341 341 341 341 341 341 340 337 335 335 334 334 332 331 332 334 336 336 335 335 334 335 334 333 333 332 333 333 333 334 334 333 333 332 332 333 333 334 334 334 333 332 330 329 329 328 328 327 326 325 325 324 323 322 321 320 321 321 320 320 320 319 319 318 318 317 317 317 317
348 347 345 344 343 343 343 343 342 342 341 340 340 340 340 341 340 340 340 341 342 341 339 336 335 337 336 335 334 334 334 335 336 336 335 334 333 334 334 334 333 333 334 335 335 335 334 334 334 333 334 335 335 335 335 335 333 331 330 329 329 328 327 326 325 324 322 322 322 321 321 321 320 319 320 320 319 319 318 318 317 317 317 317 317
348 347 346 345 344 344 342 343 342 342 342 340 340 340 340 341 340 340 340 341 341 341 339 336 335 338 337 335 336 336 336 338 338 338 338 336 334 335 335 335 335 335 335 336 335 334 334 334 334 335 336 336 336 337 336 335 332 331 329 329 329 327 327 325 324 322 320 319 318 319 320 320 320 319 320 319 318 318 318 317 316 316 316 317 317
349 348 347 346 344 344 342 342 341 341 341 340 340 340 340 340 340 340 340 340 341 340 339 337 336 338 336 336 338 338 339 339 339 340 340 338 337 336 335 336 337 337 336 337 336 335 335 335 334 336 337 337 338 337 336 334 332 330 330 329 329 328 326 324 322 320 318 317 315 316 317 318 319 319 318 318 316 316 316 314 313 314 315 315 315
349 349 348 346 345 344 342 341 341 341 341 340 340 340 340 340 339 339 339 340 340 340 339 337 336 337 336 337 337 338 340 340 340 340 341 340 339 338 337 337 338 339 338 338 338 337 337 336 336 338 338 338 338 337 336 334 332 330 330 330 329 327 325 323 320 318 316 315 314 315 315 315 316 316 317 317 316 314 312 312 311 312 312 312 312
348 348 348 346 345 344 342 341 341 340 340 340 340 339 339 340 340 339 339 340 339 339 339 336 336 336 336 337 337 337 339 339 340 340 341 341 340 341 340 340 340 340 341 341 340 339 339 339 339 339 340 338 337 337 335 333 332 331 330 329 328 326 324 322 318 316 315 313 313 313 313 313 313 312 314 315 314 311 310 309 307 305 304 304 307
348 348 346 346 346 344 342 342 341 341 341 341 340 339 340 340 340 339 339 339 339 339 339 336 337 337 335 335 337 338 338 339 340 340 341 341 341 343 343 342 342 341 342 342 340 340 340 341 340 340 340 337 337 336 335 333 332 331 330 328 326 325 323 320 316 315 313 312 312 312 312 311 310 311 312 313 312 311 309 305 303 303 301 298 302
348 347 346 345 345 344 343 342 341 341 341 341 341 340 340 340 339 339 339 339 339 339 339 337 337 338 334 333 337 339 339 340 340 340 341 341 342 343 343 343 342 342 342 342 340 341 341 341 341 340 339 337 336 336 334 332 331 331 329 327 325 323 321 318 316 314 312 311 310 310 310 310 310 310 311 312 311 311 310 307 307 308 305 299 299
346 346 345 345 344 344 344 342 341 341 341 341 341 341 340 340 339 339 338 339 338 338 339 337 337 338 334 333 337 339 339 340 340 340 341 341 342 343 343 343 342 342 342 342 341 341 341 341 340 339 339 338 336 335 333 331 330 330 328 326 324 322 320 317 316 314 312 310 309 309 309 309 309 309 309 310 309 309 309 309 309 309 308 303 300
345 345 345 345 344 344 344 343 342 341 341 341 341 341 340 339 338 339 339 339 338 338 339 338 338 338 335 334 337 338 339 340 339 340 341 341 343 343 343 343 342 341 342 342 342 341 341 340 340 338 338 337 336 334 332 331 330 329 327 324 322 320 318 316 316 315 313 311 309 309 309 308 308 308 308 309 309 309 309 309 309 308 308 306 305
345 345 344 344 344 344 344 343 342 341 341 341 341 340 339 338 338 338 338 338 338 338 338 338 338 337 336 336 337 338 339 339 339 340 340 341 342 343 343 342 342 341 342 342 341 341 340 338 338 337 337 336 335 333 331 331 331 330 328 325 322 320 317 316 317 316 314 313 311 310 310 309 309 309 309 309 309 309 309 309 309 308 307 306 307
346 345 344 343 343 344 345 344 343 342 341 341 341 340 339 338 338 338 337 338 338 338 338 338 338 338 338 338 338 339 339 339 339 340 340 341 342 343 343 343 342 341 342 342 341 340 338 337 336 336 335 334 333 333 332 332 331 330 329 327 324 322 319 318 317 317 316 314 313 312 311 310 310 310 309 309 309 308 308 309 308 307 307 307 306
347 345 344 343 343 343 345 345 343 343 342 341 341 340 339 339 338 338 338 338 338 338 338 338 338 338 338 338 338 339 339 339 339 339 340 341 342 343 343 342 342 341 341 341 340 338 337 336 335 335 335 333 332 332 332 332 331 330 329 328 326 325 325 323 320 318 316 316 314 313 313 312 311 311 310 309 309 308 308 308 308 307 307 307 306
348 346 345 344 343 343 344 344 343 343 343 341 340 340 339 339 339 339 339 339 339 339 339 339 339 338 338 338 338 339 338 338 339 339 340 341 342 343 343 342 342 341 341 340 339 338 336 336 335 335 335 334 333 332 332 332 331 330 329 329 327 327 327 325 323 321 317 316 315 313 313 312 311 311 310 309 309 309 309 308 308 308 307 307 307
348 347 345 344 343 344 344 344 344 343 343 342 340 340 340 339 339 339 339 339 339 339 339 339 339 338 338 337 338 339 338 338 339 340 340 341 342 343 343 342 342 341 341 339 338 337 336 335 335 335 334 334 333 332 333 332 330 330 330 330 329 328 327 324 324 323 319 317 315 313 313 312 311 311 309 309 309 308 308 308 308 308 307 307 307
349 347 345 344 343 343 344 344 344 344 343 342 340 340 340 340 339 339 339 339 339 339 339 339 339 339 338 338 338 339 338 339 339 340 340 340 342 343 342 342 341 340 340 339 337 336 335 335 334 334 334 333 333 333 333 331 330 329 329 330 329 328 326 324 325 324 321 318 316 313 313 312 311 310 310 309 309 308 309 308 308 308 308 308 307
348 348 345 344 344 344 344 343 344 343 342 342 341 341 341 340 340 340 339 339 339 339 339 340 340 339 339 339 339 339 339 339 339 340 340 340 341 342 342 341 340 340 339 339 338 336 335 334 334 334 333 333 333 333 332 331 331 330 328 328 327 326 325 324 325 325 324 322 318 314 313 312 312 310 310 310 308 308 309 308 308 308 308 307 307
347 348 346 345 344 344 344 343 344 343 343 342 341 341 342 341 341 341 340 340 340 340 340 340 340 339 340 340 339 340 339 339 339 340 340 340 341 342 342 340 340 340 339 339 338 337 335 334 334 334 334 334 333 332 331 331 331 330 328 327 326 324 324 324 324 324 324 323 320 317 314 314 314 312 311 311 310 309 309 309 308 308 308 307 307
347 348 346 345 344 344 344 344 343 343 343 343 342 342 342 342 342 341 341 341 340 340 340 341 340 340 340 340 340 340 339 339 339 339 340 340 341 342 341 340 340 340 339 339 338 337 336 335 335 334 334 334 333 332 331 330 330 330 328 327 325 325 325 324 324 324 324 323 321 319 316 316 316 314 312 312 310 309 309 309 308 308 308 308 307
346 349 347 345 345 344 344 344 344 343 343 343 343 342 342 343 342 342 342 342 341 341 341 341 341 341 340 341 340 340 339 339 339 339 339 340 341 342 341 340 340 340 339 338 339 338 336 335 335 333 333 333 332 331 331 331 330 330 329 327 326 326 326 325 325 324 324 323 322 320 318 316 315 314 314 312 310 310 310 310 309 308 308 308 307
Wind_Speed
20 23 21 26 26 23 22 20 21 20 19 18 17 16 17 17 17 17 17 17 15 15 15 15 15 14 15 15 14 13 13 12 12 13 12 14 15 15 14 14 14 14 13 13 13 12 11 11 11 13 14 14 15 15 16 16 15 16 17 17 17 17 16 15 15 15 15 16 16 16 16 15 15 14 13 13 16 17 15 13 11 12 13 13 12
26 25 23 27 27 24 23 21 21 21 20 18 18 17 18 18 17 17 17 17 16 15 14 14 13 13 13 13 13 13 14 14 13 13 13 13 15 14 14 13 13 13 13 13 12 11 11 11 11 13 14 14 15 16 17 17 17 17 17 17 17 17 16 16 15 14 16 17 17 17 17 15 14 13 13 12 14 16 15 14 13 12 12 11 11
29 26 24 28 28 25 24 22 20 21 21 19 19 19 20 19 19 18 18 18 17 16 15 14 13 12 12 12 12 13 14 15 13 13 13 13 15 14 14 14 13 12 12 12 12 11 12 11 11 13 13 14 17 19 19 18 18 18 18 17 17 17 16 15 14 14 16 16 14 15 16 16 15 14 12 11 11 13 13 13 13 12 11 11 10
28 27 25 29 29 26 25 22 21 21 21 20 20 21 21 21 20 20 19 18 17 16 14 13 12 12 12 13 13 14 15 14 13 14 14 14 14 14 14 15 14 14 13 13 12 11 12 12 12 13 14 16 19 20 19 19 18 17 17 17 17 16 16 14 14 15 16 15 12 11 12 13 13 13 12 11 10 11 11 11 12 11 10 10 11
27 27 25 29 28 27 25 23 23 22 21 20 20 22 22 22 21 20 19 17 16 15 13 12 11 12 13 13 14 15 16 15 15 14 14 14 13 14 15 15 16 15 14 13 13 12 13 13 13 15 16 18 20 20 19 18 17 17 16 16 16 15 15 14 15 16 16 15 12 10 9 10 10 11 11 10 10 10 10 10 10 10 10 10 11
27 26 26 29 27 26 26 25 23 24 23 21 22 23 23 22 21 20 18 17 15 14 12 11 10 12 14 14 13 14 17 18 15 14 14 13 11 13 15 15 15 16 14 14 14 14 14 14 15 17 17 19 20 19 18 17 16 16 15 15 15 14 14 13 14 14 14 13 12 9 8 9 9 9 9 9 9 9 9 9 9 10 10 9 10
25 25 26 29 27 27 27 26 24 24 23 22 24 24 24 22 22 20 18 16 14 12 12 12 12 13 15 14 13 13 17 19 15 13 15 12 11 13 15 15 15 15 14 14 14 14 14 14 16 16 16 18 18 18 17 15 14 14 14 14 14 13 13 12 11 12 13 10 8 8 8 9 9 9 9 9 9 8 8 9 9 10 10 10 10
22 23 25 27 26 29 29 27 24 24 23 23 24 24 24 22 21 19 17 15 13 13 13 13 13 14 15 15 15 13 15 17 14 14 14 12 13 15 16 15 15 16 15 14 15 15 14 14 15 16 16 17 17 16 14 13 12 11 12 12 12 12 12 11 11 12 12 9 7 8 8 8 9 9 9 9 9 8 9 9 10 10 11 11 10
20 21 25 26 25 30 30 28 26 25 24 23 23 25 23 21 21 18 17 16 14 14 14 14 13 14 15 15 16 14 13 14 14 15 15 13 14 16 16 15 16 16 15 15 15 15 15 14 15 16 16 16 16 14 13 12 10 10 10 10 10 11 11 11 11 11 9 7 8 7 7 8 8 9 9 9 8 9 9 9 10 11 11 10 10
21 22 25 25 25 30 31 30 28 26 25 23 23 25 22 20 20 18 17 16 15 14 13 14 14 13 13 13 16 16 14 14 14 16 16 13 15 17 16 16 17 16 15 16 15 16 14 13 15 16 15 15 15 13 12 11 9 9 9 9 10 10 10 10 11 9 6 6 8 8 8 9 9 9 9 8 8 9 9 9 10 10 11 11 11
21 22 23 23 25 31 32 30 28 27 26 24 23 23 22 21 20 19 18 16 15 13 12 13 13 13 12 12 16 16 15 15 14 15 17 15 16 16 15 17 18 16 15 15 15 15 13 14 16 15 15 15 14 12 11 10 9 9 9 10 10 10 10 10 9 7 6 7 8 7 8 10 9 9 8 9 9 9 10 10 10 11 11 12 12
21 21 20 20 25 31 32 30 29 28 27 25 23 23 22 21 20 19 18 16 14 13 12 12 12 12 11 13 16 16 15 16 14 15 17 16 15 15 15 18 17 16 16 16 15 14 13 16 16 14 14 13 12 11 10 9 9 9 10 11 11 11 10 10 7 5 6 7 7 7 7 9 9 9 9 9 9 10 10 10 11 11 11 11 11
21 19 18 19 24 30 31 29 28 28 27 26 24 23 23 22 20 20 18 16 14 14 13 12 12 12 12 14 16 16 15 16 15 16 18 16 16 15 16 18 17 16 16 16 14 14 15 16 15 14 13 12 12 10 9 9 9 10 10 12 12 11 10 9 6 5 6 7 7 7 7 8 8 9 10 9 9 9 10 10 11 11 11 10 10
22 18 18 20 23 30 32 28 27 27 26 25 25 23 23 22 21 20 19 17 15 14 14 12 11 12 13 14 15 16 15 15 15 17 17 16 18 17 17 17 16 16 16 15 14 15 16 15 14 13 13 12 11 10 9 9 9 10 11 12 12 11 10 8 5 5 6 7 6 6 8 7 8 10 9 9 9 9 9 10 10 10 11 10 10
21 19 18 19 21 28 31 28 27 26 25 25 25 24 23 22 21 20 19 18 16 16 15 12 10 11 14 15 15 15 15 14 16 18 16 17 19 17 17 16 14 15 16 15 16 16 16 15 14 13 13 12 12 11 10 10 10 11 12 13 12 11 9 5 4 5 5 6 6 6 8 7 9 9 8 8 9 9 8 9 9 9 9 9 9
19 18 17 18 20 25 28 27 26 25 25 25 24 24 23 22 21 20 20 19 17 17 15 12 10 10 13 15 15 15 15 14 16 18 16 17 18 16 15 15 14 16 16 16 17 17 16 15 14 14 13 13 13 12 12 12 12 13 14 13 11 10 9 4 3 5 5 6 5 6 7 8 9 8 8 8 9 8 7 7 7 6 6 6 6
18 17 17 19 20 23 24 24 24 24 24 25 24 24 24 22 22 21 20 20 17 17 15 12 11 10 11 15 15 15 15 15 17 18 16 16 15 15 15 14 16 16 16 17 18 17 16 15 15 14 14 14 13 13 13 14 14 14 14 12 10 8 8 6 3 5 6 6 5 6 7 8 9 8 8 8 8 8 7 6 5 4 4 5 6
17 16 16 19 21 22 23 22 23 22 22 23 23 24 24 23 23 22 20 20 18 16 15 13 12 10 9 13 15 14 15 16 18 17 16 16 14 14 15 15 16 16 16 17 17 17 16 15 15 15 14 14 14 14 15 15 15 14 13 11 10 7 7 6 4 6 7 6 6 6 7 8 8 8 8 8 8 7 6 5 5 5 6 7 7
18 17 17 19 21 22 22 23 22 21 21 21 21 23 23 22 22 21 20 20 18 16 15 13 13 11 8 11 14 13 15 17 19 17 16 17 15 14 15 16 15 16 17 17 17 17 16 16 15 15 15 15 15 15 15 15 14 13 12 10 9 6 6 5 4 6 5 6 7 6 6 8 8 8 8 7 7 5 5 5 6 7 7 8 9
18 19 18 18 20 21 21 22 22 23 22 21 21 21 22 22 22 21 20 20 18 16 15 13 13 11 8 11 13 13 14 17 18 16 16 17 15 14 15 16 15 16 17 16 17 17 16 16 16 15 15 15 15 15 14 13 13 12 11 9 7 5 5 4 4 4 4 6 7 6 7 8 7 7 7 6 5 4 5 6 7 8 8 9 10
17 19 19 19 20 21 21 21 22 23 22 21 21 20 21 22 21 21 20 19 18 16 15 14 13 10 8 11 13 13 14 16 16 15 15 16 15 14 14 16 15 16 16 16 16 16 16 16 16 15 14 14 14 14 13 12 11 10 9 8 6 4 3 4 4 3 6 8 6 7 8 7 7 7 6 5 5 5 6 7 8 8 8 9 11
18 19 20 21 21 21 22 21 22 23 22 20 21 20 20 21 20 19 19 18 18 16 15 14 12 11 10 12 13 13 13 14 15 14 15 16 16 14 13 16 15 15 16 16 16 16 16 16 15 15 14 13 13 12 11 11 10 9 9 7 5 3 4 5 4 4 6 7 7 8 7 7 7 6 5 5 5 6 6 7 8 8 9 11 12
19 20 21 22 21 22 23 22 22 24 23 20 20 21 20 20 20 19 18 18 17 16 15 15 14 13 13 13 13 13 13 13 15 15 15 16 16 15 13 15 15 15 16 16 15 16 16 15 14 14 13 12 11 10 10 9 9 9 7 5 4 4 6 6 5 5 7 7 8 8 7 7 6 4 4 5 5 6 6 7 8 10 12 12 13
19 19 21 23 22 23 24 24 23 24 24 21 20 21 20 21 21 20 19 18 17 17 17 16 15 14 14 14 12 13 13 13 14 15 15 16 16 15 14 15 15 15 15 15 14 15 15 14 14 13 12 10 9 9 9 9 8 7 5 4 5 5 6 5 5 6 7 9 9 8 7 7 5 3 3 4 4 5 6 7 9 11 12 12 12
18 19 20 24 24 24 25 25 25 26 24 21 20 21 21 21 21 20 20 19 18 18 17 17 15 14 14 13 13 14 14 13 15 15 16 16 16 16 15 15 15 15 15 14 13 14 13 12 13 12 10 9 9 8 9 8 8 6 5 5 5 5 6 6 6 6 8 9 8 8 8 6 5 3 4 4 5 7 8 9 10 11 10 10 11
18 20 21 23 25 25 25 26 26 26 24 22 20 21 21 21 21 21 20 20 19 18 18 17 16 15 14 13 14 14 14 13 15 15 15 16 16 17 16 16 16 16 16 14 13 13 12 12 12 11 9 9 9 9 8 8 8 7 6 6 5 6 6 6 7 7 8 8 6 6 6 6 6 5 5 7 8 9 10 11 11 10 11 12 13
20 20 19 22 25 25 26 26 26 26 25 22 20 21 21 20 20 20 20 20 19 18 18 17 16 16 14 14 14 14 14 14 15 15 15 15 16 17 17 16 16 16 16 15 14 14 12 12 11 10 9 9 9 9 9 8 7 7 6 6 6 6 7 7 7 7 8 8 7 6 6 6 6 6 8 10 11 11 12 12 12 12 13 13 13
21 19 18 20 25 27 27 27 26 26 25 23 21 20 21 20 19 20 20 20 19 18 18 16 16 16 15 14 14 15 15 14 15 15 14 14 15 16 17 16 15 15 16 14 14 14 12 12 11 10 10 9 10 9 9 8 7 6 6 6 7 7 7 7 7 8 8 8 8 7 7 6 7 9 11 11 11 11 11 12 12 13 13 12 12
21 20 19 21 25 28 28 27 26 26 25 24 22 21 21 21 20 20 20 19 19 18 17 16 16 15 15 15 15 15 15 15 15 14 14 14 14 15 16 16 15 14 15 14 14 14 12 12 11 11 10 10 10 10 9 8 7 6 6 7 8 8 8 7 7 8 8 8 8 8 8 8 9 11 11 11 11 11 11 11 12 12 11 10 10
21 21 21 22 26 29 29 28 25 25 25 24 23 21 21 21 21 20 20 19 19 18 17 17 16 14 14 15 15 16 15 15 15 14 14 14 14 14 14 15 15 14 14 14 13 13 12 12 11 11 11 10 10 10 9 8 7 7 8 9 9 8 8 7 7 7 7 8 9 9 8 10 11 11 11 10 10 11 10 11 10 10 9 9 9
22 23 23 23 25 28 29 28 26 25 24 24 23 22 21 22 21 20 20 19 19 18 17 17 16 13 14 15 16 16 15 15 14 14 14 14 14 14 14 14 14 14 14 13 13 13 12 12 12 11 11 10 10 10 9 8 8 8 9 10 9 8 8 7 7 7 7 7 9 10 9 11 12 11 11 11 10 10 10 9 8 8 8 8 8
23 23 23 23 25 26 27 27 26 25 24 23 23 22 22 22 21 21 20 19 19 19 18 17 16 13 15 16 16 16 15 14 14 14 13 13 13 13 13 13 13 14 13 13 13 13 12 11 11 11 11 10 10 9 9 8 9 10 10 10 9 8 8 7 7 7 7 7 8 9 10 10 11 12 11 10 10 9 8 8 7 6 7 7 7
21 22 21 22 25 25 25 25 26 26 25 24 23 22 22 22 22 21 20 20 20 19 18 18 16 14 16 17 16 16 15 14 15 14 13 13 13 13 13 13 13 13 13 13 13 13 12 12 12 12 12 11 10 10 9 9 10 10 10 10 9 8 7 7 7 7 6 7 7 8 9 10 10 11 11 10 9 8 7 6 6 6 6 6 7
18 21 23 23 24 24 23 24 25 26 25 24 23 22 22 22 22 21 19 20 21 19 18 18 16 14 16 17 17 16 16 15 15 15 14 13 13 13 13 13 13 13 13 13 13 13 12 13 13 13 12 12 11 11 10 10 11 11 10 9 8 8 7 6 6 6 6 6 7 7 8 8 9 9 10 10 10 10 9 6 5 6 6 5 6
18 22 25 24 24 23 22 24 26 26 25 25 23 21 21 21 21 20 20 20 20 19 19 19 16 15 17 18 18 17 16 15 16 16 16 15 14 14 14 13 14 14 14 14 14 13 13 13 13 13 13 12 11 11 11 11 11 11 11 9 8 7 6 6 6 6 6 6 7 7 7 7 7 8 8 8 9 10 8 6 6 7 6 5 5
17 19 23 25 24 22 21 22 25 27 26 26 24 22 21 21 20 20 20 20 20 19 20 19 16 16 18 18 19 19 18 17 17 16 16 15 15 15 15 14 15 14 13 14 14 13 13 13 13 13 13 12 11 11 11 11 12 11 11 9 8 8 7 6 5 5 5 6 7 7 6 6 6 7 7 6 7 8 8 7 7 7 6 5 5
16 16 20 23 23 22 21 22 24 27 27 26 25 23 22 21 20 20 20 20 20 19 20 19 16 16 18 18 20 20 19 18 17 17 16 15 15 15 14 15 15 14 12 13 13 12 13 13 13 12 12 12 11 12 12 12 12 12 11 10 9 8 7 6 5 5 5 6 7 6 6 6 6 7 7 6 7 7 8 8 6 5 5 5 5
19 18 19 20 21 22 23 23 25 26 27 26 25 24 22 21 21 20 20 20 20 19 19 19 16 16 18 18 19 21 19 18 18 17 16 15 14 13 13 14 14 13 12 13 13 13 13 13 13 12 12 11 10 12 13 12 12 12 11 10 9 7 6 6 5 5 5 6 7 6 6 7 7 7 6 6 7 8 8 6 3 3 2 2 5
21 21 20 20 22 22 23 24 25 27 28 26 26 24 23 22 21 20 20 20 20 19 19 19 17 16 18 18 19 20 20 19 18 17 16 16 14 12 12 13 13 13 13 13 14 13 13 13 13 12 12 10 10 12 13 13 12 11 11 9 8 7 6 5 5 5 5 6 7 7 6 7 7 7 7 7 7 7 6 5 3 2 1 1 3
22 22 22 23 24 24 24 26 26 29 29 27 27 25 24 24 23 22 22 21 21 20 19 19 17 17 18 19 19 19 19 19 19 18 16 16 13 11 11 12 13 13 13 14 14 14 14 14 13 13 12 11 10 12 13 14 13 11 10 8 6 6 6 5 5 5 6 7 7 7 7 7 7 7 7 7 6 6 5 4 3 3 2 1 2
22 22 23 24 25 25 26 28 28 30 30 29 29 28 27 26 25 24 23 22 21 20 20 19 18 18 18 19 19 19 19 19 19 18 17 16 13 11 11 12 13 13 14 14 13 14 14 14 13 13 14 13 12 13 13 15 14 11 9 7 6 5 5 5 6 6 6 7 7 7 7 7 7 7 7 6 6 6 5 4 3 3 3 2 1
22 23 24 26 26 25 27 29 29 31 32 30 29 30 29 27 24 24 23 21 21 20 20 20 19 18 18 19 19 20 20 18 18 18 17 16 13 11 11 12 12 13 13 14 13 14 15 16 16 14 14 13 12 13 15 15 13 11 10 8 6 5 5 6 6 7 7 7 8 8 8 8 8 8 7 7 6 6 5 4 4 3 3 2 1
21 23 25 27 28 26 26 29 30 31 33 30 29 30 29 26 23 22 22 20 20 20 19 19 19 19 19 19 20 20 20 18 18 18 17 16 13 11 11 11 12 13 14 14 15 16 17 19 19 16 14 14 12 13 17 16 12 11 10 6 6 6 6 8 9 8 9 8 8 8 8 8 9 8 7 7 7 7 6 5 4 4 3 2 1
19 22 24 26 29 28 28 31 32 31 32 32 30 28 26 24 21 20 20 19 18 19 18 18 20 20 20 20 20 21 20 18 18 18 17 15 13 11 11 11 12 13 14 15 16 18 19 20 19 17 16 15 12 12 16 16 11 10 9 5 5 5 5 7 10 10 10 10 9 10 9 9 9 9 8 8 8 7 6 6 6 5 4 3 2
21 24 26 27 28 29 30 33 34 32 31 32 31 27 25 24 22 21 20 20 19 19 20 21 22 22 21 21 21 21 20 18 18 18 17 15 13 12 11 12 13 13 14 15 17 18 19 19 19 18 17 15 13 12 15 16 12 11 9 4 3 4 3 7 9 8 10 11 10 11 11 10 11 10 9 9 8 8 7 7 7 6 5 4 3
22 23 25 28 29 29 31 32 33 33 31 32 31 29 27 26 26 25 24 23 21 22 23 23 23 23 22 22 21 21 20 19 18 18 17 14 13 13 13 12 13 15 14 15 17 18 18 19 19 18 18 15 13 12 14 16 13 12 10 6 3 4 1 7 5 4 8 10 10 11 12 12 12 11 10 10 9 9 8 8 8 6 6 5 4
20 22 24 28 29 29 31 31 32 32 31 32 33 30 28 28 27 26 25 25 23 23 23 22 23 23 22 22 22 21 21 19 18 18 17 15 13 13 14 13 13 15 14 14 18 19 18 18 18 18 17 15 14 13 14 15 14 13 11 8 6 5 1 4 4 2 5 8 10 11 12 12 13 12 11 11 10 10 8 8 8 7 7 5 5
19 21 25 28 30 29 30 31 31 31 31 33 34 32 29 29 28 25 24 24 23 22 22 22 22 22 21 22 22 21 21 20 19 18 17 16 14 14 14 14 14 15 15 14 16 18 18 17 17 17 16 15 15 14 13 14 14 14 13 11 9 7 6 7 8 6 4 4 8 11 12 13 13 13 12 10 11 11 10 9 8 7 7 6 6
20 22 25 28 30 30 30 31 31 30 31 32 33 32 29 28 28 26 25 24 23 22 21 22 22 22 22 22 22 22 22 21 19 18 17 16 16 15 15 15 15 15 14 14 14 17 18 17 16 17 15 14 15 14 13 13 14 13 13 12 10 7 8 9 9 9 8 6 4 8 11 13 12 13 14 11 11 11 11 10 9 8 7 7 6
21 23 25 27 30 32 31 31 31 30 31 33 33 33 30 27 28 28 26 24 23 23 22 23 23 23 23 24 23 23 22 21 20 19 18 17 16 15 15 15 15 14 14 14 14 16 17 17 17 18 17 15 14 14 14 13 14 13 12 12 11 9 10 10 9 10 9 8 5 5 10 13 11 13 15 14 13 12 11 11 10 9 8 7 6
22 23 25 27 30 32 31 32 32 31 32 33 34 33 30 27 28 28 27 26 25 24 23 24 25 24 25 25 24 23 22 22 21 19 18 19 17 16 16 15 14 15 14 15 16 16 17 17 17 18 19 17 15 15 15 14 14 13 12 12 12 12 12 11 9 10 9 8 6 5 8 12 12 12 15 15 14 12 12 12 11 10 9 8 7
Wind_Direction
164 162 162 175 171 175 175 174 178 169 167 164 162 157 156 156 155 156 155 155 153 151 151 153 153 154 156 155 154 153 149 142 142 141 142 147 143 134 132 132 130 127 122 117 116 118 116 114 115 113 110 110 109 108 106 104 104 102 103 104 104 105 103 99 95 94 92 89 89 88 85 83 81 78 76 73 76 80 79 73 62 57 58 52 51
161 160 161 173 172 176 175 176 179 168 167 164 163 161 162 160 156 154 150 151 148 149 148 148 149 149 150 148 151 150 149 152 152 152 152 153 148 137 134 135 136 135 131 123 120 118 114 116 121 121 117 116 115 113 111 110 109 108 108 108 106 105 104 101 98 94 91 86 82 82 82 81 81 77 73 71 71 75 79 79 68 59 60 53 49
154 158 159 172 174 176 176 178 178 169 168 165 164 165 166 164 159 155 151 151 148 151 151 151 151 149 150 146 148 148 153 156 150 147 145 144 145 143 143 141 138 137 136 129 124 119 112 116 123 122 120 116 114 112 112 111 109 109 109 108 107 105 104 101 97 96 92 87 78 74 74 73 75 75 71 68 66 67 73 77 71 62 58 55 48
152 155 158 171 174 175 176 178 176 169 169 166 166 167 168 165 161 158 155 153 152 153 153 156 156 156 154 149 149 148 149 148 141 136 133 139 147 149 150 147 140 134 134 129 125 123 115 117 122 121 118 114 110 110 110 109 109 109 109 108 107 105 104 102 100 96 89 88 85 76 74 76 75 76 75 70 65 63 64 63 61 58 52 51 44
153 154 158 167 171 174 176 178 175 170 170 167 167 169 169 166 164 160 158 156 155 156 157 159 160 164 159 153 155 153 150 145 142 136 137 148 152 151 152 149 142 133 129 126 124 123 120 120 121 119 116 112 110 111 112 112 113 113 112 110 108 106 104 103 103 95 85 85 85 80 79 81 78 75 75 71 67 62 60 55 52 51 47 44 34
153 154 157 163 167 174 177 178 177 171 169 169 169 171 170 168 166 162 161 160 161 159 155 152 149 157 157 150 149 156 156 148 144 141 150 156 150 151 150 143 136 129 127 128 125 123 124 124 122 120 116 115 116 115 116 116 116 116 115 113 110 109 106 105 103 91 81 76 74 76 74 75 77 75 75 70 66 63 60 56 52 46 45 50 38
154 154 158 162 165 175 178 177 178 172 170 171 172 172 171 169 168 165 163 161 159 150 143 138 133 140 145 145 142 149 154 151 147 145 156 155 143 146 142 134 131 130 130 131 130 130 128 124 124 123 121 121 120 119 120 119 117 117 115 115 114 113 110 108 102 88 78 68 66 73 68 68 75 76 74 68 64 61 57 52 52 48 43 51 50
157 156 158 160 165 177 177 177 177 172 172 171 172 172 170 170 170 165 160 155 149 144 139 137 135 137 141 146 147 145 148 151 151 145 146 140 131 135 133 130 132 132 132 135 134 134 130 126 128 127 125 125 123 123 123 121 120 119 118 118 119 119 115 110 99 84 76 68 67 66 65 67 74 78 69 65 62 53 50 47 47 52 49 52 56
160 158 159 159 168 179 176 176 177 174 173 170 171 170 167 169 169 160 156 153 149 147 140 140 142 143 144 149 152 149 149 151 154 148 142 135 127 129 131 129 130 132 135 136 134 133 131 128 133 131 129 128 125 126 123 120 121 122 125 125 126 124 119 114 98 81 72 72 68 58 66 69 72 78 68 65 65 54 52 52 51 54 55 57 59
162 160 161 160 171 179 175 176 176 175 172 169 171 168 167 168 165 158 158 154 149 149 141 142 145 149 149 152 156 154 154 153 153 149 147 145 136 136 133 129 129 131 134 134 132 133 130 131 137 136 132 131 128 127 123 120 121 122 129 133 135 130 124 112 93 82 78 75 67 62 70 69 69 73 68 69 67 61 58 58 59 59 59 60 61
162 162 162 162 173 178 176 176 175 175 171 169 169 167 169 166 164 161 158 151 147 150 143 141 145 152 155 159 162 157 157 155 149 149 152 147 143 145 135 130 131 132 134 133 133 133 134 138 140 139 134 132 129 125 123 124 125 124 129 139 143 137 124 102 86 84 84 73 67 66 65 64 68 72 70 72 70 65 64 63 65 65 66 66 65
162 163 164 165 175 177 176 177 175 174 171 169 169 168 169 166 166 163 155 149 148 151 144 142 147 151 153 156 159 158 160 155 148 154 155 144 143 151 138 132 133 133 135 134 135 134 137 141 140 138 133 130 126 124 125 130 134 131 134 144 145 137 119 96 87 86 83 72 66 61 55 62 69 74 75 75 74 72 72 72 73 72 72 71 69
162 164 164 163 174 176 176 177 175 175 171 168 169 170 170 168 167 161 154 153 154 157 150 146 151 152 148 148 154 158 161 157 154 156 155 148 148 152 141 134 137 138 136 137 138 137 137 140 140 136 130 127 125 125 128 134 144 142 141 145 141 134 117 95 88 84 82 76 66 60 56 64 71 77 83 82 78 80 82 82 81 79 76 74 71
161 165 164 161 170 175 177 177 175 175 173 170 169 171 172 168 164 160 158 157 160 164 158 152 156 157 150 149 155 160 163 161 160 157 153 153 153 151 142 138 143 144 140 140 139 137 138 140 137 132 128 126 125 125 128 134 145 145 142 141 136 128 114 99 91 84 86 82 66 62 63 71 81 84 88 86 84 87 87 85 84 82 78 74 71
162 164 164 161 167 174 177 177 176 176 174 172 171 172 171 167 163 164 162 160 166 168 164 158 159 162 155 153 156 162 166 166 164 158 155 157 155 150 145 146 147 144 143 142 137 137 139 139 136 131 129 127 125 123 124 128 133 138 139 137 133 123 113 105 93 85 88 86 69 65 70 80 89 91 93 90 90 91 91 88 83 82 78 73 67
161 162 161 159 164 172 178 178 178 177 176 174 172 172 170 168 166 168 164 163 170 168 166 163 164 165 158 158 159 164 168 170 167 158 155 156 157 157 151 150 149 143 144 141 136 137 138 137 135 132 130 128 125 122 121 122 125 132 136 136 132 125 119 106 81 83 88 85 72 70 79 94 97 98 100 96 95 94 95 91 80 75 69 60 51
157 158 157 159 164 170 177 179 180 179 178 176 174 174 173 171 169 171 167 167 172 169 167 166 170 168 160 163 162 166 170 171 166 157 157 156 156 159 151 148 150 146 143 141 138 137 136 135 134 131 131 128 125 123 120 121 126 131 134 134 131 132 122 102 71 78 84 80 66 64 80 102 104 102 102 101 101 95 93 87 72 61 45 33 30
153 155 158 162 165 170 174 178 180 180 181 178 177 177 177 175 172 174 170 170 173 170 169 168 174 170 161 165 163 167 172 171 164 158 162 161 156 154 152 150 151 149 144 142 140 138 136 134 133 132 131 130 126 123 121 124 129 132 135 132 132 137 115 92 77 83 81 74 72 78 92 106 107 105 101 102 105 98 92 82 60 46 34 29 35
156 157 163 167 168 172 175 177 179 179 180 178 179 179 180 179 175 175 173 174 174 171 171 169 175 170 163 165 161 164 170 170 164 159 162 164 161 155 157 156 151 152 149 145 143 139 137 135 133 134 133 132 128 125 127 130 133 135 134 132 134 125 92 76 84 89 87 85 91 103 107 109 109 109 109 107 107 98 84 65 45 41 38 43 53
159 160 168 172 172 175 175 177 179 179 179 177 178 179 182 182 178 177 176 177 174 172 172 172 175 169 167 165 157 158 165 171 168 164 164 166 166 159 162 161 153 155 152 148 146 141 139 136 135 135 136 136 133 132 134 135 138 137 135 136 129 99 69 72 85 80 86 88 89 103 109 112 109 110 116 111 100 79 60 45 43 48 49 56 64
162 164 171 177 177 178 176 177 179 180 179 176 176 177 182 181 179 179 180 180 176 175 174 174 175 168 168 162 154 156 164 174 175 172 170 169 169 164 166 164 157 158 156 151 149 145 142 140 139 138 138 140 139 139 142 144 145 141 141 137 112 82 74 88 78 61 83 88 95 110 113 113 112 116 115 99 77 55 46 44 52 60 62 67 69
165 167 175 180 179 179 179 178 179 180 178 176 175 176 180 179 180 179 180 183 178 176 175 174 173 167 166 160 158 162 165 174 178 178 175 172 174 171 166 166 163 161 160 156 152 148 146 145 144 143 143 143 140 140 145 150 152 148 143 124 98 94 96 90 74 61 78 92 111 116 113 116 120 122 99 70 53 46 48 53 60 68 73 73 69
169 171 177 181 179 178 181 180 179 179 178 176 175 175 176 178 180 179 180 183 179 178 177 176 173 169 168 164 165 170 169 172 176 178 175 173 177 174 166 169 168 166 165 160 157 154 151 150 149 147 145 142 139 143 146 148 153 150 138 114 109 112 99 93 85 70 67 85 110 113 111 116 115 103 70 43 33 48 64 64 68 77 80 76 70
173 173 177 181 180 177 180 182 179 178 177 176 175 175 175 178 181 180 182 182 179 180 179 179 178 174 172 169 171 173 171 172 174 175 173 173 176 173 170 174 173 172 170 162 163 160 154 153 152 148 147 151 155 156 151 147 151 149 138 127 125 116 105 98 88 80 76 87 104 106 105 111 104 78 52 35 40 70 82 79 83 88 87 81 75
174 175 178 182 182 178 179 181 178 178 178 176 175 176 175 178 181 181 182 182 181 181 181 182 181 177 175 173 173 174 172 171 172 173 173 174 176 174 175 177 177 179 173 166 169 165 160 160 158 157 162 169 167 159 154 151 154 153 146 140 130 120 112 103 94 89 85 86 94 104 110 112 104 85 67 63 75 87 92 93 94 94 87 79 75
180 182 180 180 182 180 179 180 178 177 178 176 176 177 176 179 183 182 182 184 182 180 181 181 181 179 178 175 173 174 173 171 171 172 174 175 177 177 179 180 181 182 179 177 177 173 173 172 170 173 175 173 166 161 157 155 156 155 150 144 134 125 115 106 101 94 90 88 96 117 123 116 107 99 89 88 92 94 98 98 95 88 79 74 73
189 189 182 176 180 182 180 180 178 177 177 177 178 179 179 181 184 183 184 185 182 180 180 179 181 183 182 178 174 174 174 173 173 173 173 175 177 179 182 183 184 184 184 185 182 182 182 179 178 178 174 171 166 162 157 157 158 155 152 145 136 127 118 110 106 100 97 99 109 124 133 127 111 104 99 96 96 99 99 98 95 87 81 79 77
191 191 184 177 181 183 180 180 180 178 177 176 179 181 183 184 183 184 186 184 183 183 181 179 183 187 186 181 177 175 175 175 174 174 173 174 176 179 182 184 187 186 186 189 185 184 184 180 179 176 174 171 166 162 158 160 160 158 155 143 135 126 116 111 108 106 104 104 111 122 129 123 105 105 107 104 103 103 101 99 96 90 87 84 81
190 188 184 182 183 182 181 182 181 180 178 176 180 183 185 186 184 185 186 184 185 186 181 181 186 188 185 183 180 176 176 175 175 174 172 173 174 176 180 183 187 187 186 189 187 184 183 181 179 176 175 172 168 166 163 163 162 161 153 141 134 127 120 116 112 109 109 108 114 127 132 118 108 111 112 111 111 110 108 104 98 94 90 86 81
190 187 185 187 185 182 181 183 182 181 178 177 181 184 186 187 186 185 186 185 187 186 180 183 189 187 183 182 182 178 176 175 175 174 172 172 173 174 177 180 185 187 186 187 185 184 184 183 182 179 176 176 174 169 167 166 164 158 147 142 136 130 125 119 115 111 111 111 115 128 137 128 120 120 120 117 116 114 113 109 102 97 92 87 81
189 187 188 190 188 183 181 181 183 182 180 179 181 184 186 187 187 187 187 187 188 186 180 187 191 186 182 181 181 179 177 176 175 173 172 172 173 175 176 177 181 183 183 183 183 184 186 186 184 182 180 178 174 171 173 169 161 155 149 145 138 133 128 120 116 112 112 116 118 122 130 131 127 127 127 124 121 119 117 112 106 100 94 90 84
188 186 187 190 188 184 182 181 180 180 182 184 183 185 188 188 188 188 189 188 188 186 185 192 193 186 181 178 179 179 177 177 175 172 171 173 174 176 174 174 176 177 180 181 182 185 185 184 183 183 180 176 174 173 173 167 159 154 150 145 140 135 129 122 118 115 114 121 125 126 127 130 131 131 130 127 124 121 118 114 110 105 99 93 89
186 182 185 189 186 182 182 183 180 178 180 187 188 187 189 189 189 189 190 189 187 187 188 193 193 186 180 179 177 176 176 176 175 172 171 173 174 175 173 171 173 173 177 178 180 184 183 180 179 178 177 174 172 169 167 164 157 152 149 146 142 136 130 126 121 118 120 125 130 132 132 132 134 133 131 130 128 127 129 124 118 112 106 97 88
180 177 184 187 184 180 181 185 185 181 179 184 190 191 191 190 190 190 189 189 187 188 190 192 193 186 180 179 177 175 176 176 176 173 172 172 174 176 174 171 171 171 173 177 180 183 183 178 176 176 175 175 170 166 165 162 157 152 149 146 141 135 130 127 124 124 126 129 136 137 139 139 138 138 137 142 148 151 145 130 121 115 110 102 86
180 177 182 183 182 178 180 186 187 186 182 182 188 192 193 191 192 191 190 190 188 190 192 191 192 187 181 180 180 181 181 181 181 178 176 175 175 178 178 175 173 173 175 179 181 182 182 180 178 176 174 174 169 166 166 162 158 153 148 144 143 141 135 131 129 130 131 133 139 142 144 146 146 147 147 151 159 167 155 124 115 112 109 105 88
188 177 176 177 178 174 181 189 188 188 187 185 185 188 193 194 193 192 192 190 189 192 193 192 193 187 183 182 184 187 186 187 187 183 183 182 181 181 182 180 177 177 179 182 184 183 182 181 181 178 174 173 170 166 165 161 157 151 148 148 149 147 142 139 137 134 133 136 140 144 147 148 153 154 154 151 152 167 158 131 128 129 128 122 101
202 187 178 177 175 173 182 191 191 189 188 188 186 186 190 194 194 192 193 192 191 194 193 192 194 189 187 186 186 189 190 192 191 188 188 189 188 185 182 180 179 179 181 184 188 186 182 180 179 179 177 179 177 169 162 159 156 151 151 152 152 150 145 144 142 137 135 138 142 147 149 149 153 153 152 153 148 154 155 146 150 151 149 145 126
204 197 190 183 178 176 183 191 194 191 188 188 188 187 188 191 194 193 193 194 194 196 194 193 195 192 190 188 187 190 192 193 194 192 192 193 191 186 180 178 179 181 183 187 190 188 185 180 177 178 182 189 185 171 164 160 155 153 152 149 149 151 148 146 143 140 139 139 144 147 149 149 151 153 153 156 152 149 155 157 148 123 102 126 134
203 199 196 190 186 185 185 190 194 193 190 188 188 189 188 188 192 193 193 194 195 195 194 194 196 195 192 190 188 190 193 195 196 195 197 196 191 185 180 178 181 183 186 192 193 189 184 180 178 174 178 190 186 172 164 155 152 157 156 148 147 152 150 149 147 144 142 142 147 150 152 154 153 158 158 159 159 154 159 166 156 143 63 36 115
203 202 199 193 190 188 186 190 194 194 191 188 189 189 188 188 190 194 194 193 194 194 194 195 196 196 191 189 188 190 194 197 197 197 200 199 192 186 183 180 184 187 191 194 193 188 182 179 177 171 171 176 176 170 159 150 145 144 150 148 145 152 153 156 156 150 150 151 155 158 160 162 161 164 165 163 164 162 165 174 179 173 185 314 25
199 201 199 195 191 188 189 191 193 194 192 188 189 190 189 189 189 194 194 192 191 191 193 195 197 197 191 188 188 189 194 197 198 199 202 201 193 186 184 184 187 191 196 195 191 185 179 176 173 172 171 166 167 171 161 153 147 139 148 155 151 161 167 169 169 164 164 164 168 171 170 171 172 171 174 176 174 173 177 182 189 179 179 223 322
192 194 196 196 194 192 193 193 191 193 194 190 188 191 192 191 189 192 194 192 191 191 193 195 197 197 192 188 187 190 194 196 198 200 203 202 195 187 185 187 189 192 196 195 188 181 177 179 177 175 178 176 175 176 168 167 170 166 167 169 167 179 184 188 193 182 179 181 179 181 179 180 183 183 184 186 185 185 189 189 189 183 183 195 197
191 190 195 196 196 198 197 195 193 193 196 194 189 191 193 192 188 189 192 192 191 192 194 194 196 196 193 189 187 191 194 196 199 200 201 202 197 190 186 188 189 192 196 192 185 183 183 187 185 180 181 186 184 180 179 185 192 175 171 185 180 180 192 197 204 199 191 192 187 187 189 190 192 192 194 196 194 194 195 194 187 180 186 196 198
194 195 199 196 194 198 199 197 196 195 196 196 193 191 190 189 186 184 188 191 190 191 194 194 196 197 195 190 189 193 194 198 201 199 200 200 197 192 188 190 191 194 197 192 187 190 190 189 189 186 185 190 188 182 187 198 205 182 183 207 175 191 227 189 186 196 196 198 197 196 195 195 199 199 202 204 200 197 196 193 187 187 192 196 212
198 197 198 199 196 197 200 200 199 197 196 196 193 188 185 184 182 180 183 188 188 190 194 195 195 198 196 190 191 195 195 199 202 199 200 198 195 194 192 193 193 196 198 194 191 193 194 192 191 192 193 197 190 179 189 202 209 202 213 235 179 226 253 154 163 185 193 204 207 203 201 199 201 203 206 208 203 199 198 194 191 193 198 201 210
204 198 195 199 200 200 201 201 199 198 196 195 193 187 184 183 182 181 183 186 188 191 194 194 193 196 196 191 192 195 196 200 202 199 198 196 194 194 195 194 195 199 199 197 194 192 194 196 198 199 200 203 196 186 191 198 206 215 229 247 253 292 6 139 167 181 183 205 212 207 206 202 203 204 206 209 205 202 200 198 199 199 200 204 210
208 201 197 200 203 202 202 200 199 199 196 194 192 188 186 186 185 185 187 188 190 193 195 194 193 194 194 191 191 195 197 200 202 199 197 196 194 193 196 196 197 202 203 200 198 196 198 200 203 206 206 204 201 200 200 194 200 215 222 229 239 269 259 179 233 243 178 199 206 208 210 203 205 207 208 211 206 203 202 200 203 202 202 205 211
209 201 198 200 202 201 199 198 198 198 196 194 192 190 187 186 187 188 191 193 192 191 192 193 193 193 192 190 189 193 196 200 201 198 196 196 195 194 196 197 198 204 204 201 201 202 205 205 205 209 209 208 207 212 212 197 200 212 212 219 225 230 229 230 249 258 252 222 193 199 207 204 206 209 212 215 209 205 203 206 211 208 206 209 215
209 202 196 195 200 201 197 196 197 197 196 194 192 193 189 184 186 189 192 194 191 188 189 191 191 192 191 189 190 193 195 199 201 197 195 195 196 194 195 198 199 202 204 204 205 206 207 205 205 207 207 210 212 218 222 210 212 216 206 208 216 220 229 233 237 242 256 261 204 185 191 195 204 211 212 214 212 210 207 209 216 213 210 210 216
210 203 195 193 201 202 196 195 197 198 198 196 194 193 190 185 187 190 191 192 190 187 187 189 190 191 190 189 191 193 194 196 200 198 195 196 196 192 194 198 198 200 203 204 208 209 207 205 207 208 206 209 212 218 224 221 224 226 209 201 204 211 226 229 227 231 240 251 250 213 189 188 201 208 206 210 212 213 212 209 212 215 215 215 218
208 201 196 196 201 201 196 195 199 201 199 197 197 194 190 189 191 191 190 192 190 187 186 188 189 189 190 189 190 192 193 195 197 198 198 197 195 191 194 196 195 201 202 205 210 206 205 208 210 212 213 213 214 218 225 227 229 228 214 207 210 216 228 233 231 230 232 234 243 246 208 197 207 207 200 205 210 213 213 207 211 218 215 215 220